Regional Weather Roundup
Issued by NWS

Home | Current Version | Previous Version | Graphics & Text | Print | Product List | Glossary On
Versions: 1 2 3 4 5 6 7 8 9 10 11 12 13 14 15 16 17 18 19 20 21 22 23 24 25 26 27 28 29 30 31 32 33 34 35 36 37 38 39 40 41 42 43 44 45 46 47 48 49 50
000
ASUS43 KLMK 200810
RWRKY
KENTUCKY REGIONAL WEATHER ROUNDUP
NATIONAL WEATHER SERVICE LOUISVILLE KY
400 AM EDT THU JUL 20 2017

NOTE "FAIR" INDICATES FEW OR NO CLOUDS BELOW 12,000 FEET
WITH NO SIGNIFICANT WEATHER AND/OR OBSTRUCTIONS TO VISIBILITY.

KYZ001>023-026-027-061>063-070>075-200900-
WESTERN AND SOUTH CENTRAL KENTUCKY

CITY           SKY/WX    TMP DP  RH WIND       PRES   REMARKS
PADUCAH        CLEAR     76  71  85 S3        30.07F
HENDERSON      CLEAR     72  71  97 CALM      30.08F FOG
OWENSBORO      CLEAR     76  72  87 CALM      30.09S
HOPKINSVILLE   CLEAR     76  75  96 SW5       30.09F
BOWLING GREEN  CLEAR     75  74  96 CALM      30.09F
GLASGOW        CLEAR    N/A N/A N/A CALM      30.10F HAZE
$$

KYZ024-025-028>034-038-045-046-053-200900-
NORTH CENTRAL KENTUCKY

CITY           SKY/WX    TMP DP  RH WIND       PRES   REMARKS
LOUISVILLE/SDF CLEAR     78  71  79 CALM      30.08F
LOUISVILLE/LOU CLEAR     73  72  96 CALM      30.09F
FORT KNOX      CLEAR     71  71 100 CALM      30.09F
$$

KYZ035>037-039>044-047>052-055>060-089>105-200900-
NORTHEAST KENTUCKY

CITY           SKY/WX    TMP DP  RH WIND       PRES   REMARKS
LEXINGTON      CLEAR     71  65  81 CALM      30.11F
COVINGTON      CLEAR     68  68 100 CALM      30.08F
FRANKFORT      CLEAR     71  66  84 CALM      30.09F
$$

KYZ054-064>069-076>088-106>120-200900-
SOUTHEAST KENTUCKY

CITY           SKY/WX    TMP DP  RH WIND       PRES   REMARKS
JACKSON        PTCLDY    71  67  87 CALM      30.12F
LONDON         CLEAR     68  65  90 CALM      30.13F
SOMERSET       CLEAR     68  68 100 CALM      30.13F
MIDDLESBORO    CLEAR     66  66 100 CALM      30.14F
MONTICELLO     SUNNY     68  67  96 N9        30.14F FOG
$$





USA.gov is the U.S. government's official web portal to all federal, state and local government web resources and services.